INTELSAT 30 (IS-30)

Last updated on Tue Nov 19 2024 00:02:42 GMT+0000 (Coordinated Universal Time)

1 40271U 14062A 24322.39702280 -.00000146 00000+0 00000+0 0 9991 2 40271 0.0193 15.8389 0001289 353.6775 95.3238 1.00273491 1007
UTC large
Height (km)
Speed (km/s)
/
Latitude / Longitude
Inclination (degrees)
Orbital Period (minutes)
Azimuth
Elevation
Range (km)
Doppler Factor

Next 0 passes for location: London (51.5072 / 0.1276)

Sorry there are no passes over London.